Tracking 17150 objects as of 5-August-2015
HD Live streaming from Space Station

COSMOS 2404 (GLONASS)

Track COSMOS 2404 (GLONASS) now!
COSMOS 2404 (GLONASS) is classified as:


NORAD ID: 28112
Int'l Code: 2003-056A
Perigee: 19,048.5 km
Apogee: 19,227.8 km
Inclination: 63.2 °
Period: 675.8 minutes
Semi major axis: 25509 km
RCS: 3.2542 m2 (large)
Launch date: December 10, 2003
Source: Commonwealth of Independent States (former USSR) (CIS)
SV: 701

New Glonass-M type; Russia's version of the GPS system, functions the same; there has been cooperation between the two; much scaled-back constellation
Your satellite tracking list
Your tracking list is empty





NASA's NSSDC Master Catalog

Two Line Element Set (TLE):
1 28112U 03056A   15216.59205959  .00000073  00000-0  00000+0 0  9996
2 28112 063.2309 202.8477 0035152 089.3758 112.8556 02.13087737 90662

Source of the keplerian elements: AFSPC

N2YO: 376